Lawrence, MA

11:07 PM EST on February 17, 2018 (GMT -0500)
Lawrence Municipal

Weather History for KLWM - January, 2014

Change the Weather History Date:

Monday, January 20, 2014

  Actual Average Record
Temperature  
Mean Temperature 32 °F -  
Max Temperature 39 °F 33 °F 61 °F (1973)
Min Temperature 21 °F 15 °F -10 °F (1957)
Degree Days  
Heating Degree Days 34    
Moisture  
Dew Point 21 °F    
Average Humidity 61    
Maximum Humidity 70    
Minimum Humidity 48    
Precipitation  
Precipitation 0.00 in - - ()
Sea Level Pressure  
Sea Level Pressure 29.62 in    
Wind  
Wind Speed 9 mph (WSW)    
Max Wind Speed 17 mph    
Max Gust Speed 26 mph    
Visibility 10 miles    
Events      
Averages and records for this station are not official NWS values.
T = Trace of Precipitation, MM = Missing Value Source: NWS Daily Summary

Daily Weather History Graph

Daily Weather History Graph

Search for Another Location

Airport or City:

Trip Planner

Search our weather history database for the weather conditions in past years. The results will help you decide how hot, cold, wet, or windy it might be!

Date:

Astronomy

Jan. 20, 2014 Rise Set
Actual Time 7:09 AM EST 4:42 PM EST
Civil Twilight 6:38 AM EST 5:13 PM EST
Nautical Twilight 6:03 AM EST 5:47 PM EST
Astronomical Twilight 5:30 AM EST 6:21 PM EST
Moon 9:21 PM EST (1/20) 9:00 AM EST (1/20)
Length of Visible Light 10h 34m
Length of Day
9h 32m
Waning Gibbous, 83% of the Moon is Illuminated
Jan 20
Waning Gibbous
Jan 24
Last Quarter
Jan 30
New
Feb 6
First Quarter
Feb 14
Full

Hourly Weather History & Observations

Time (EST) Temp. Windchill Dew Point Humidity Pressure Visibility Wind Dir Wind Speed Gust Speed Precip Events Conditions
12:54 AM 30.0 °F 22.4 °F 21.0 °F 69% 29.54 in 10.0 mi South 8.1 mph - N/A   Overcast
1:54 AM 30.9 °F 21.7 °F 21.0 °F 67% 29.56 in 10.0 mi SSW 11.5 mph 19.6 mph N/A   Overcast
2:54 AM 32.0 °F 22.5 °F 21.0 °F 64% 29.57 in 10.0 mi SSW 12.7 mph - N/A   Overcast
3:54 AM 30.9 °F 23.5 °F 21.9 °F 69% 29.57 in 10.0 mi SSW 8.1 mph - N/A   Mostly Cloudy
4:54 AM 30.9 °F 24.3 °F 21.9 °F 69% 29.57 in 10.0 mi SSW 6.9 mph - N/A   Mostly Cloudy
5:54 AM 32.0 °F 25.6 °F 21.9 °F 66% 29.58 in 10.0 mi SSW 6.9 mph - N/A   Overcast
6:54 AM 32.0 °F 28.7 °F 21.9 °F 66% 29.57 in 10.0 mi SSW 3.5 mph - N/A   Overcast
7:54 AM 32.0 °F 25.6 °F 23.0 °F 69% 29.58 in 10.0 mi SSW 6.9 mph - N/A   Overcast
8:54 AM 32.0 °F 25.6 °F 23.0 °F 69% 29.59 in 10.0 mi SSW 6.9 mph - N/A   Overcast
9:54 AM 34.0 °F 25.5 °F 23.0 °F 64% 29.58 in 10.0 mi SSW 11.5 mph - N/A   Overcast
10:54 AM 36.0 °F 28.0 °F 23.0 °F 59% 29.56 in 10.0 mi SW 11.5 mph - N/A   Scattered Clouds
11:54 AM 37.9 °F 28.5 °F 23.0 °F 55% 29.53 in 10.0 mi SW 17.3 mph 23.0 mph N/A   Scattered Clouds
12:54 PM 39.0 °F 31.8 °F 23.0 °F 53% 29.50 in 10.0 mi WSW 11.5 mph - N/A   Clear
1:54 PM 39.0 °F 34.0 °F 24.1 °F 55% 29.50 in 10.0 mi SSW 6.9 mph - N/A   Clear
2:54 PM 39.9 °F 35.1 °F 25.0 °F 55% 29.52 in 10.0 mi SW 6.9 mph - N/A   Clear
3:54 PM 39.0 °F 34.0 °F 25.0 °F 57% 29.54 in 10.0 mi WSW 6.9 mph - N/A   Mostly Cloudy
4:54 PM 39.9 °F 34.5 °F 21.9 °F 49% 29.58 in 10.0 mi West 8.1 mph - N/A   Mostly Cloudy
5:54 PM 36.0 °F 27.1 °F 26.1 °F 67% 29.65 in 10.0 mi West 13.8 mph 26.5 mph 0.00 in   Overcast
6:54 PM 36.0 °F 30.3 °F 27.0 °F 70% 29.68 in 10.0 mi West 6.9 mph - N/A   Overcast
7:54 PM 35.1 °F 29.3 °F 25.0 °F 67% 29.71 in 10.0 mi WNW 6.9 mph - N/A   Mostly Cloudy
8:54 PM 30.9 °F 22.2 °F 16.0 °F 54% 29.75 in 10.0 mi WNW 10.4 mph 20.7 mph N/A   Scattered Clouds
9:54 PM 28.0 °F 15.7 °F 12.0 °F 51% 29.81 in 10.0 mi WNW 17.3 mph 25.3 mph N/A   Overcast
10:54 PM 24.1 °F 12.0 °F 7.0 °F 48% 29.85 in 10.0 mi NW 13.8 mph 21.9 mph N/A   Scattered Clouds
11:54 PM 21.0 °F 7.1 °F 3.9 °F 48% 29.89 in 10.0 mi WNW 16.1 mph 24.2 mph N/A   Clear